Find Kosmos-2307

NORAD ID: 23511 Int'l Des: 1995-009 Owner: VKS Country: RU Constellation: GLONASS operational
MEOCIRCULAR

Live-Position

3D-Globus wird geladen...

Über Kosmos-2307

Beschreibung wird geladen...

Nächste Überflüge

Passes for default location (London). Set your location on the main map for personalized predictions.

Höhenverlauf

Loading altitude history...

Zweizeiliger Elementsatz

1 23511U 95009A 26118.31086330 -.00000035 00000-0 00000+0 0 9995
2 23511 64.0480 303.0037 0006691 122.4487 56.0429 2.13105656242139
Epoch: 28. Apr. 2026 • Age: 160 hours

Aktueller Status

Höhe 19159.6 km
Geschwindigkeit 3.95 km/s
Subsatellitenpunkt -55.28°S, 44.1°W
Startdatum 7. März 1995
Alter 31.1 years
Typ other

Technische Details

Klassifizierung Payload
Masse 1300.00 kg
Trockenmasse 1200.00 kg
Gesamtmasse 1300.00 kg
Länge 4.00 m
Durchmesser 1.50 m
Spannweite 7.80 m
Form Cyl + Ant + 2 Pan
Hersteller POL
Bus-Typ Uragan
Phasenstatus In Orbit
Besitzer/Staat VKS/RU

Most Searched